Probability
0 0 0 0 0 0 0 0 0 0 0 0 0 0 1 1 1 1 2 3 2 1 1 2 3 3 4 6 6 5 5 5 5 4 2 0 0 0 0 0 0 0 1 1
0 0 0 0 0 0 0 0 0 0 0 0 0 0 0 0 0 1 2 3 3 3 3 4 4 4 5 6 7 6 6 6 7 6 2 1 1 0 0 0 0 1 2 3
0 0 0 0 0 0 0 0 0 0 0 0 0 0 0 0 0 0 2 3 4 4 6 7 7 6 6 6 7 7 8 10 11 8 3 2 3 2 1 1 1 1 3 5
0 0 0 0 0 0 0 0 0 0 0 0 0 0 0 1 0 0 2 4 5 6 7 10 9 6 6 7 7 7 9 12 13 10 5 3 3 3 3 3 3 3 4 6
0 0 0 0 0 0 0 0 0 0 0 0 0 0 0 0 0 0 1 4 6 7 9 11 8 5 5 7 9 9 11 14 15 12 10 7 5 4 4 4 3 3 5 7
0 0 0 0 0 0 1 1 1 0 0 0 0 0 0 0 0 0 2 4 6 8 11 13 11 8 8 11 13 15 18 20 18 15 13 11 9 7 6 5 4 4 5 7
0 0 0 0 0 1 2 2 2 1 0 0 0 0 1 1 1 1 4 6 7 8 12 16 18 16 15 18 20 24 27 28 23 18 15 13 13 11 9 8 6 6 6 6
0 0 0 0 0 1 2 2 1 1 0 0 0 1 1 1 2 5 9 11 10 11 13 17 21 20 19 21 25 29 32 31 27 23 21 18 16 14 13 12 11 9 8 7
0 0 0 0 0 1 1 0 0 0 0 0 0 1 1 2 4 9 13 15 15 14 14 16 19 20 19 22 26 30 31 31 29 28 26 24 21 19 18 18 18 16 14 13
0 0 0 0 0 0 0 0 0 1 1 1 0 0 1 4 8 12 14 16 17 17 15 15 18 22 23 25 29 31 33 32 31 29 26 25 24 23 22 23 25 26 26 26
0 0 0 0 0 0 0 0 0 2 2 1 0 1 3 5 9 12 14 15 16 18 17 17 21 26 31 33 35 37 37 34 31 28 27 28 26 25 27 30 32 34 35 35
0 1 1 1 0 0 0 0 0 1 2 1 0 2 6 9 12 14 15 13 15 18 21 24 29 33 37 41 44 44 40 36 35 35 37 38 36 34 37 39 40 41 40 39
0 1 2 1 0 0 0 0 0 1 1 1 0 3 8 13 16 17 17 16 17 20 25 32 37 40 42 45 49 49 45 42 44 46 49 51 51 49 48 47 45 46 43 41
0 1 1 1 1 0 0 0 0 0 1 1 1 4 8 14 16 17 19 20 21 24 29 36 43 46 46 47 50 51 49 48 51 54 56 58 59 59 55 50 48 46 44 42
0 0 1 2 2 1 0 0 0 0 1 2 2 6 13 17 18 17 18 21 23 26 31 37 42 46 47 48 50 50 49 50 52 54 56 57 58 60 59 54 50 47 42 41
0 0 0 1 1 1 0 0 0 1 2 3 5 12 21 24 21 18 17 19 22 26 32 36 38 41 44 46 47 47 48 50 50 51 52 53 54 56 55 53 52 50 46 43
0 0 0 0 1 0 0 1 2 3 4 7 12 20 27 27 22 17 17 19 21 25 31 35 36 37 40 43 45 45 48 49 48 46 46 47 50 51 48 46 47 48 46 45
0 0 0 0 1 1 1 3 5 7 9 13 19 25 27 25 20 18 21 23 23 25 30 34 37 36 37 41 43 43 45 46 44 43 44 44 44 44 42 40 41 41 40 40
0 0 0 0 1 1 2 5 8 10 13 18 22 26 26 22 18 20 25 27 26 26 28 33 37 36 37 41 43 41 42 42 41 41 42 40 37 36 35 34 35 37 37 36
0 0 0 0 1 2 5 7 10 12 17 23 27 29 27 23 20 22 27 27 25 26 29 32 35 35 35 39 41 40 40 40 38 37 37 33 29 28 28 29 30 32 34 34
0 0 0 0 1 4 8 12 14 17 22 26 30 32 31 27 26 26 28 26 24 27 31 34 35 34 33 35 37 36 36 36 35 33 31 28 24 22 22 25 26 26 28 30
2 2 2 2 4 7 11 14 17 20 23 25 27 29 31 29 27 27 28 27 26 28 31 32 32 33 34 34 32 31 32 32 32 31 28 24 19 16 16 18 19 20 23 26
4 4 4 5 6 8 9 10 13 17 21 23 24 27 28 26 24 24 26 27 28 28 28 27 28 32 34 33 29 27 27 28 27 25 22 19 17 15 14 15 16 17 20 22
4 4 5 5 6 6 5 5 7 11 16 20 23 25 24 23 23 23 24 26 26 25 25 24 26 29 30 28 24 21 22 23 21 19 18 18 17 16 15 15 15 16 17 17
4 4 6 6 5 4 4 4 6 9 12 16 18 19 18 19 22 22 23 24 22 21 22 22 23 24 23 20 16 14 15 16 17 17 17 16 15 15 15 14 12 11 11 10
4 6 7 7 5 4 4 6 8 10 11 12 13 13 13 16 19 21 22 22 19 18 19 19 19 18 16 13 11 11 11 13 15 17 17 14 13 14 13 11 8 5 4 4
Wind_Speed
10 12 12 10 10 9 8 9 8 5 4 7 9 8 6 9 11 12 12 13 13 12 12 11 11 11 10 10 10 10 9 9 7 5 5 5 5 4 4 4 5 5 5 5
11 15 12 8 8 10 10 11 9 5 4 7 9 9 7 9 11 11 12 13 14 13 13 12 12 12 12 12 11 11 11 10 9 6 5 4 3 3 4 4 4 5 6 6
17 11 8 9 11 12 12 11 9 7 5 8 9 10 9 9 10 10 11 12 13 14 14 14 14 13 13 13 13 11 11 11 10 8 6 5 4 4 5 5 5 6 6 6
14 10 9 12 13 12 12 9 9 8 9 7 8 9 7 8 10 11 12 12 13 14 14 14 15 15 14 14 13 12 11 11 10 10 8 8 6 5 5 4 4 5 6 6
11 10 12 14 12 11 8 4 8 9 10 10 9 11 5 7 8 10 10 11 12 13 14 15 15 15 14 13 12 12 12 11 11 10 9 9 7 6 4 4 5 5 6 6
10 7 10 11 9 9 6 5 6 9 10 12 9 11 8 5 6 6 7 9 9 11 12 13 13 13 13 13 12 12 12 11 11 11 11 10 9 7 5 5 5 6 5 5
13 12 9 8 10 10 11 11 9 10 10 10 6 9 6 2 2 4 4 4 6 8 10 12 13 14 13 14 13 12 13 12 12 12 12 11 10 8 7 6 6 5 4 5
13 13 12 10 12 10 13 15 11 10 10 7 7 9 4 1 2 3 3 3 4 6 9 11 12 13 13 14 14 13 13 12 12 12 11 10 10 8 7 7 5 5 4 4
9 9 7 8 10 12 13 13 13 12 12 11 8 7 5 3 3 3 2 2 2 3 6 8 11 12 12 13 14 14 13 12 12 12 11 10 9 8 7 6 7 6 5 4
8 8 8 7 8 8 10 10 9 11 11 12 11 11 6 4 3 2 1 1 0 1 4 6 9 11 12 12 13 13 12 12 11 11 10 8 9 8 8 7 7 6 6 5
9 10 9 9 10 10 10 11 10 10 11 12 12 6 1 1 2 2 0 0 1 0 2 4 6 9 10 11 11 12 12 11 10 10 9 8 8 8 8 7 7 7 7 7
6 9 9 10 6 6 10 11 12 11 10 11 12 4 4 1 0 0 1 1 1 1 1 3 5 7 8 10 10 10 10 10 9 9 8 9 8 8 8 8 7 7 7 7
3 7 10 11 11 9 10 10 11 11 10 12 13 6 5 2 1 1 1 2 2 2 2 2 3 5 6 7 8 9 9 9 8 8 8 8 8 8 7 8 7 7 7 7
7 9 11 12 7 6 10 11 11 13 12 12 14 9 3 1 1 1 1 1 2 2 3 3 3 3 4 5 5 6 6 7 7 7 8 7 7 7 8 7 7 7 7 7
6 9 10 10 8 8 10 11 12 13 13 14 12 10 5 2 1 0 1 2 2 3 3 3 3 4 4 4 4 4 4 5 6 7 7 7 6 6 5 5 6 6 6 7
5 8 9 11 11 11 11 11 12 13 13 13 12 8 2 1 1 2 1 2 2 2 2 3 3 3 4 4 3 3 4 4 5 5 6 6 5 5 4 4 5 5 6 6
5 6 9 11 10 11 14 11 12 11 10 11 11 6 2 3 2 2 1 1 1 2 2 2 2 2 2 3 3 3 3 4 5 5 5 4 4 4 4 4 5 6 6 6
8 8 8 9 9 16 4 1 6 8 7 6 5 3 3 1 1 1 0 0 1 2 1 1 1 2 2 2 3 2 3 3 4 4 3 3 3 3 3 4 5 5 5 5
9 9 8 9 12 12 5 2 4 7 6 3 3 3 2 1 2 3 2 2 1 1 1 1 1 2 2 2 2 2 2 2 3 3 2 2 2 2 3 4 4 4 4 4
8 9 10 10 12 12 3 1 3 7 8 1 1 2 2 3 4 2 3 2 2 1 1 1 1 2 2 2 1 1 1 1 1 1 1 1 2 2 2 3 3 4 4 4
9 10 12 13 12 7 2 2 4 8 1 2 2 2 3 3 3 3 2 1 1 1 2 1 2 2 2 2 1 1 1 1 1 1 1 1 1 2 2 2 2 3 3 3
8 9 10 11 12 7 3 1 2 3 3 1 2 2 2 2 1 1 1 1 1 1 1 1 1 2 2 1 1 1 1 1 1 1 0 1 1 2 1 2 2 3 3 3
7 5 4 4 2 4 3 2 3 2 1 2 2 3 2 2 1 1 1 1 1 0 1 1 1 1 1 1 0 0 1 1 1 0 1 1 1 1 2 2 2 3 3 2
4 3 5 5 3 1 0 1 1 2 2 3 3 3 3 3 2 2 1 1 1 0 0 1 1 1 2 2 2 1 1 1 1 1 1 1 2 2 1 2 2 2 2 2
5 4 6 7 4 3 3 1 1 2 3 3 3 2 2 3 3 2 2 2 1 1 1 1 0 1 1 2 2 2 1 1 1 1 1 1 1 1 1 1 2 2 2 2
7 8 8 6 3 4 3 3 3 3 3 2 2 3 3 2 3 2 2 2 2 1 1 1 1 0 1 1 1 1 1 1 1 1 1 2 1 1 1 1 0 3 1 2
Wind_Direction
202 224 225 226 237 265 272 263 253 239 196 234 248 255 221 195 205 203 198 197 198 199 194 189 192 193 190 189 188 190 191 181 184 183 189 188 188 191 187 190 177 188 197 190
210 228 230 229 234 245 251 253 250 225 205 248 259 258 237 209 214 211 205 201 202 199 194 191 195 196 196 193 193 192 192 188 191 184 192 195 195 199 192 197 181 197 197 201
227 228 210 217 220 233 241 249 258 254 224 233 259 251 227 213 213 214 215 211 206 202 199 193 196 199 199 196 195 196 193 189 194 187 188 184 188 209 199 194 191 198 200 204
232 223 212 223 224 232 240 243 256 249 241 239 241 266 224 210 210 213 216 213 210 205 203 199 197 200 201 198 194 194 192 192 189 191 196 197 201 206 202 200 190 192 200 205
216 214 216 227 229 232 249 253 248 244 247 256 233 260 244 209 224 219 215 214 212 207 204 202 200 198 199 196 193 188 188 190 189 195 197 205 211 210 200 196 185 202 196 205
231 211 228 234 231 226 207 205 220 236 245 245 239 252 257 231 238 233 215 212 214 208 204 201 198 193 194 192 191 187 184 188 190 195 201 208 210 209 201 198 194 200 195 196
221 215 214 225 219 201 209 222 224 225 228 240 216 245 260 279 269 255 243 219 210 204 200 196 195 191 190 190 188 185 184 188 192 195 200 203 206 204 205 206 202 213 203 195
218 216 206 214 226 219 218 230 239 251 252 238 202 240 241 239 263 258 253 246 208 196 198 196 193 193 191 188 187 187 186 188 190 195 199 202 204 207 206 207 214 208 218 210
232 220 197 211 226 236 223 232 249 256 260 267 245 242 224 222 236 242 233 217 205 198 198 196 193 192 191 190 188 189 188 189 191 195 195 199 202 210 211 202 212 216 213 210
250 239 205 194 207 215 248 242 238 246 251 254 246 239 242 224 246 245 234 251 212 179 199 189 189 190 190 189 188 189 187 192 193 193 195 194 198 203 211 213 212 217 214 212
250 240 217 199 216 211 204 220 236 247 253 257 259 241 163 197 270 268 253 92 47 95 180 174 180 180 181 183 185 187 186 188 193 195 194 199 197 202 208 212 217 216 216 209
245 248 237 222 214 251 231 225 225 238 242 252 266 253 90 97 81 28 55 63 69 70 121 156 163 166 172 175 178 180 183 185 190 191 193 198 198 200 207 213 217 218 217 214
255 244 232 215 201 205 224 226 231 242 247 248 253 236 126 107 98 86 74 80 85 85 90 109 131 149 161 166 169 173 179 183 183 186 194 196 199 199 205 216 216 216 216 215
270 249 253 255 253 217 223 225 228 238 243 247 251 259 190 198 207 174 134 120 116 105 103 113 118 128 142 154 160 170 178 178 179 184 193 197 199 203 207 210 212 212 212 214
274 249 249 260 259 249 243 235 230 239 253 261 262 259 251 264 254 185 158 122 115 113 112 121 125 129 138 137 149 168 178 176 179 182 185 190 193 200 203 206 209 210 212 215
279 265 252 248 242 242 243 240 240 243 250 256 262 263 274 251 215 198 181 154 133 116 109 117 127 131 137 141 151 159 168 176 181 185 187 185 186 189 197 208 212 213 215 219
260 255 252 250 242 245 237 238 241 242 249 257 255 254 211 208 205 225 202 154 143 120 104 108 117 131 146 151 157 165 166 169 173 177 180 177 179 186 203 216 218 216 215 216
253 257 253 251 240 241 236 253 248 243 247 257 264 240 221 210 212 218 280 43 24 44 52 73 89 99 115 123 130 147 149 157 165 164 163 163 176 176 187 207 215 217 219 217
237 241 249 246 240 240 212 221 249 241 233 250 245 218 209 187 185 167 85 52 42 33 39 61 64 84 90 105 112 129 132 138 155 155 152 162 185 184 196 210 218 223 227 230
210 224 243 240 248 248 227 128 268 253 227 130 288 217 218 234 239 143 70 41 41 48 54 79 92 95 100 92 103 127 116 117 137 143 150 179 211 219 216 226 232 233 233 234
206 216 232 239 243 244 34 19 234 238 282 53 283 265 261 272 319 34 56 35 37 61 59 84 103 101 101 97 94 103 94 76 51 59 129 193 232 241 237 246 246 243 235 232
236 228 227 236 242 233 49 235 270 3 23 10 332 318 315 341 28 80 86 81 79 74 56 58 75 77 81 91 120 131 87 52 53 50 289 252 256 272 267 241 243 242 233 222
248 276 282 276 286 48 28 12 21 1 348 347 337 341 332 317 306 334 360 30 42 34 48 56 67 58 46 36 41 80 50 40 46 317 283 265 251 251 245 239 232 227 226 228
226 261 259 252 229 220 33 28 18 13 356 347 347 339 329 312 302 299 301 307 300 297 18 59 71 41 19 14 5 29 12 324 280 264 262 240 234 238 234 259 258 252 243 244
269 250 250 247 241 244 237 267 332 338 335 344 350 336 325 308 296 300 295 291 291 310 351 344 340 35 32 27 16 15 9 326 296 293 274 260 249 246 240 285 335 299 314 305
256 254 253 256 250 262 265 280 288 288 291 302 312 316 315 304 299 300 290 291 290 284 286 286 290 24 30 37 20 1 344 309 262 251 261 270 256 232 232 206 27 45 8 17